Location: Unspecified
(0.0000°N, 0.0000°E)
Time: 12:43:15
(UTC+00:00)

Hubble Space Telescope - Pass Details

Date: 19 June 2021
Orbit: 535 x 539 km, 28.5° (Epoch: 18 June)

Event Time Altitude Azimuth Distance (km) Brightness Sun altitude
Rises 20:08:52 0° 319° (NW) 2,658 5.3 -28.9°
Reaches altitude 10° 20:11:24 10° 332° (NNW) 1,771 4.0 -29.5°
Enters shadow 20:12:49 18° 348° (NNW) 1,359 3.2 -29.8°
